Вернуться в каталог

FENGYUN 1C DEB

АктивенSSO
NORAD 31430·DEBRIS·🇨🇳 China

Запущен May 10, 1999 с Taiyuan Satellite Launch Center

Loading…

Ближайшие Пролёты (ближайшие 24 часа)

TLE

СвежийSource: Space-Track

Эпоха: Sep 14, 2026, 10:55 UTC

1 31430U 99025BTS 26257.45550976  .00001394  00000-0  59260-3 0  9991
2 31430  98.7214 324.5766 0025336 319.0228  53.3615 14.26704943   486

Отслеживайте FENGYUN 1C DEB в реальном времени с AllMySat

Download on the App Store